Weather History for KLBF - September, 2013

Change the Weather History Date:

Friday, September 27, 2013

  Actual Average Record
Temperature  
Mean Temperature 55 °F 57 °F  
Max Temperature 63 °F 73 °F 93 °F (1956)
Min Temperature 47 °F 41 °F 23 °F (1964)
Degree Days  
Heating Degree Days 10 9  
Month to date heating degree days 51 124  
Since 1 July heating degree days 64 144  
Cooling Degree Days 0 1  
Month to date cooling degree days 161 69  
Year to date cooling degree days 998 764  
Growing Degree Days 6 (Base 50)    
Moisture  
Dew Point 49 °F    
Average Humidity 77    
Maximum Humidity 93    
Minimum Humidity 60    
Precipitation  
Precipitation 0.65 in 0.05 in 0.90 in (1973)
Month to date precipitation 5.08 1.27  
Year to date precipitation 19.44 17.49  
Snow  
Snow 0.00 in 0.00 in T in (1984)
Month to date snowfall 0.0 0.1  
Since 1 July snowfall 0.0 0.1  
Since 1 September snowfall 0.0 0.1  
Snow Depth 0.00 in    
Sea Level Pressure  
Sea Level Pressure 29.73 in    
Wind  
Wind Speed 8 mph (North)    
Max Wind Speed 28 mph    
Max Gust Speed 36 mph    
Visibility 9 miles    
Events Rain , Thunderstorm    
T = Trace of Precipitation, MM = Missing Value Source: NWS Daily Summary

Daily Weather History Graph

Daily Weather History Graph

Search for Another Location

Airport or City:

Trip Planner

Search our weather history database for the weather conditions in past years. The results will help you decide how hot, cold, wet, or windy it might be!

Date:

Astronomy

Sep. 27, 2013 Rise Set
Actual Time 7:35 AM CDT 7:30 PM CDT
Civil Twilight 7:08 AM CDT 7:58 PM CDT
Nautical Twilight 6:36 AM CDT 8:30 PM CDT
Astronomical Twilight 6:03 AM CDT 9:02 PM CDT
Moon 12:29 AM CDT (9/27) 3:13 PM CDT (9/27)
Length of Visible Light 12h 50m
Length of Day
11h 55m
Last Quarter, 45% of the Moon is Illuminated
Sep 27
Last Quarter
Oct 4
New
Oct 11
First Quarter
Oct 18
Full
Oct 26
Last Quarter

Hourly Weather History & Observations

Time (CDT) Temp. Dew Point Humidity Pressure Visibility Wind Dir Wind Speed Gust Speed Precip Events Conditions
12:53 AM 57.0 °F 53.1 °F 87% 29.59 in 10.0 mi ESE 6.9 mph - N/A   Clear
1:53 AM 57.0 °F 53.1 °F 87% 29.59 in 10.0 mi East 4.6 mph - N/A   Clear
2:53 AM 55.9 °F 52.0 °F 87% 29.59 in 10.0 mi Calm Calm - N/A   Clear
3:53 AM 54.0 °F 51.1 °F 90% 29.59 in 10.0 mi WNW 3.5 mph - N/A   Clear
4:53 AM 53.1 °F 50.0 °F 89% 29.61 in 10.0 mi Calm Calm - N/A   Clear
5:53 AM 55.0 °F 51.1 °F 86% 29.61 in 10.0 mi NNE 5.8 mph - N/A   Clear
6:53 AM 53.1 °F 50.0 °F 89% 29.65 in 10.0 mi Variable 4.6 mph - N/A   Clear
7:53 AM 51.1 °F 46.9 °F 86% 29.70 in 10.0 mi Variable 3.5 mph - N/A   Clear
8:53 AM 52.0 °F 46.0 °F 80% 29.72 in 10.0 mi NNE 8.1 mph 18.4 mph N/A   Clear
9:53 AM 55.0 °F 46.0 °F 72% 29.72 in 10.0 mi NNE 13.8 mph - N/A   Clear
10:53 AM 57.9 °F 46.0 °F 65% 29.73 in 10.0 mi North 11.5 mph - N/A   Clear
11:53 AM 60.1 °F 48.0 °F 64% 29.75 in 10.0 mi ENE 9.2 mph - N/A   Clear
12:53 PM 63.0 °F 48.9 °F 60% 29.75 in 10.0 mi NNE 9.2 mph - N/A   Clear
1:53 PM 62.1 °F 48.9 °F 62% 29.73 in 10.0 mi NE 9.2 mph - N/A   Clear
2:53 PM 61.0 °F 51.1 °F 70% 29.73 in 10.0 mi Variable 4.6 mph - 0.01 in Rain Light Rain
3:53 PM 59.0 °F 52.0 °F 78% 29.73 in 10.0 mi NNE 5.8 mph - 0.02 in Rain Light Rain
4:53 PM 54.0 °F 50.0 °F 86% 29.78 in 8.0 mi Calm Calm - 0.01 in Rain Light Rain
5:53 PM 53.1 °F 50.0 °F 89% 29.75 in 10.0 mi NNE 11.5 mph 19.6 mph 0.05 in   Scattered Clouds
6:53 PM 53.1 °F 48.9 °F 86% 29.75 in 10.0 mi North 13.8 mph - N/A   Overcast
7:53 PM 53.1 °F 48.0 °F 83% 29.73 in 10.0 mi North 10.4 mph 18.4 mph N/A   Mostly Cloudy
8:22 PM 51.8 °F 48.2 °F 88% 29.76 in 10.0 mi NNE 12.7 mph - 0.01 in   Mostly Cloudy
8:36 PM 51.8 °F 48.2 °F 88% 29.80 in 10.0 mi North 10.4 mph - 0.01 in Thunderstorm Overcast
8:53 PM 52.0 °F 48.0 °F 86% 29.79 in 9.0 mi NNW 15.0 mph - 0.03 in Rain , Thunderstorm Light Rain
9:08 PM 51.8 °F 48.2 °F 88% 29.84 in 2.0 mi NW 27.6 mph 35.7 mph 0.12 in Rain , Thunderstorm Heavy Rain
9:25 PM 48.2 °F 46.4 °F 93% 29.83 in 3.0 mi NNW 19.6 mph 29.9 mph 0.30 in Rain , Thunderstorm Heavy Rain
9:32 PM 48.2 °F 46.4 °F 93% 29.84 in 3.0 mi North 18.4 mph 28.8 mph 0.32 in Rain , Thunderstorm Heavy Rain
9:40 PM 48.2 °F 46.4 °F 93% 29.84 in 2.0 mi NNW 18.4 mph 26.5 mph 0.42 in Rain , Thunderstorm Heavy Rain
9:44 PM 48.2 °F 46.4 °F 93% 29.83 in 3.0 mi NNW 19.6 mph 27.6 mph 0.45 in Rain , Thunderstorm Heavy Rain
9:53 PM 48.0 °F 46.0 °F 93% 29.84 in 5.0 mi NW 17.3 mph 27.6 mph 0.47 in Rain Rain
10:53 PM 48.0 °F 45.0 °F 89% 29.85 in 10.0 mi NNW 12.7 mph 21.9 mph 0.06 in   Overcast
11:35 PM 48.2 °F 44.6 °F 87% 29.89 in 10.0 mi NW 15.0 mph - 0.00 in Rain Light Rain
11:53 PM 48.0 °F 45.0 °F 89% 29.87 in 10.0 mi NW 16.1 mph - 0.00 in Rain Light Rain